Location: Kershaw
(34.5481°N, 80.5823°W)
Time: 16:50:04
(UTC+00:00)

Vanguard 1 Rocket - Pass Details

Date: 06 October 2022
Orbit: 650 x 4225 km, 34.3° (Epoch: 08 December)

Event Time Altitude Azimuth Distance (km) Brightness Sun altitude
Rises 21:44:23 0° 219° (SW) 8,210 13.2 14.3°
Reaches altitude 10° 21:50:14 10° 214° (SW) 7,352 12.9 13.2°
Maximum altitude 22:14:37 50° 147° (SSE) 4,446 10.9 8.3°
Drops below altitude 10° 22:31:58 10° 79° (E) 5,484 10.7 4.8°
Sets 22:35:29 0° 75° (ENE) 6,102 10.9 4.1°
